Location: Izdebno
(52.6670°N, 16.2170°E)
Time: 11:00:26
(UTC+01:00)

Transit 2A - Pass Details

Date: 31 January 2023
Orbit: 591 x 964 km, 66.7° (Epoch: 21 March)

Event Time Altitude Azimuth Distance (km) Brightness Sun altitude
Rises 00:55:59 0° 319° (NW) 3,382 - -53.6°
Reaches altitude 10° 00:58:28 10° 325° (NW) 2,500 - -53.5°
Maximum altitude 01:04:06 47° 39° (NE) 1,200 - -53.2°
Drops below altitude 10° 01:10:07 10° 112° (ESE) 2,670 - -52.8°
Sets 01:12:51 0° 118° (ESE) 3,634 - -52.6°
